Location: Les Salelles
(44.4192°N, 4.1044°E)
Time: 19:35:02
(UTC+00:00)

Cosmos 1315 Rocket - Pass Details

Date: 20 January 2021
Orbit: 529 x 567 km, 81.2° (Epoch: 28 February)

Event Time Altitude Azimuth Distance (km) Brightness Sun altitude
Rises 17:50:37 0° 342° (NNW) 2,701 6.4 -13.1°
Reaches altitude 10° 17:52:52 10° 334° (NNW) 1,809 5.6 -13.5°
Maximum altitude 17:56:34 38° 266° (W) 837 4.4 -14.1°
Drops below altitude 10° 18:00:17 10° 197° (SSW) 1,816 5.9 -14.8°
Sets 18:02:33 0° 190° (S) 2,711 6.7 -15.2°
